Zurück zum Katalog

RADUGA 1M-3

AktivKommunikationGEO
NORAD 39375·PAYLOAD·🇷🇺 Russia

Gestartet Nov 11, 2013 von Baikonur Cosmodrome

Loading…

TLE

AktuellSource: Space-Track

Epoche: Sep 14, 2026, 13:58 UTC

1 39375U 13062A   26257.58203437  .00000146  00000-0  00000-0 0  9994
2 39375   6.1836  71.1945 0002216 303.1581 223.6868  1.00272760 47003

Verfolge RADUGA 1M-3 in Echtzeit mit AllMySat

Download on the App Store